DELTA 1 DEB, 4841

Orbit data source: Space-Track

DELTA 1 DEB, 4841 is space debris originally from a launch on Thu, 04 Jul 1968 UTC launched from the Air Force Western Test Range (AFWTR). Debris objects in space refer to the collection of defunct objects orbiting the Earth. Examples of debris include non-operational satellites, rocket bodies, and fragments generated from explosions, collisions, or faulty payload assembly.

Loading next visibility...
Identifier
4841, 1968-055D
Orbit
Active
Country
Flag of USUS
Related business
Manufacturer
Unknown
Mission
Spacecraft
Bus & Motor
Unknown
Mass
Unknown
Launch date (UTC)
1968-07-04 (57 years ago)
Launch vehicle
Unknown
Launch site
Air Force Western Test Range (AFWTR)
Object type
Payload
Rocket body
Debris
Shape & HBR
Unknown
Radar Cross Section
Small (<0.1 m²)

Expand to show TLE details & history
Last TLE update: 16 hours ago

TLE from 16 hours ago
0 DELTA 1 DEB
1 04841U 68055D   25258.37693388  .00000154  00000-0  26150-3 0  9997
2 04841 120.7323 213.3055 2701821  98.1017  32.2841  9.29196889109891
Epoch: 2025-09-15T09:02Z
TLE epoch observation values (Epoch: 2025-09-15T09:02:47.087Z)
Latitude
23.19118°
Longitude
-82.29493°
Altitude
1,285.399 km
Speed
7.898 km/s
True Right ascension
03h 11m 56s
True Declination
23° 04' 32"
Sunlit
Object was in daylight at epoch
Visualization orbit readout
Latitude
Unknown
Longitude
Unknown
Altitude
Unknown
Speed
Unknown
Apparent Right ascension
Unknown
Apparent Declination
Unknown
Sunlit
N/A
Visualization observer readout
Local Sidereal Time
17:53:36
Azimuth
Unknown
Elevation
Unknown
Doppler factor
Unknown
Orbital elements
Apogee altitude
5,760.526 km
Perigee altitude
596.464 km
Semi-major axis
9,556.632 km
Eccentricity
0.27018
Inclination
120.7323°
RAAN
213.3055°
Arg. of periapsis
98.1017°
True anomaly
54.68161°
Mean anomaly
32.2841°
Eccentric anomaly
42.80256°
Mean motion
2.3232 °/min
Orbital period
154.96 mins
BSTAR
0.0002615
Loading maneuver chart data...
Computing Atmospheric mass density...
Loading historical data...
Loading historical data...
Loading historical data...
Loading historical data...
Loading historical data...
Loading historical data...
Loading historical data...

Documentation

Showing up to 5 results
|